Time,TemperatureF,DewpointF,PressureIn,WindDirection,WindDirectionDegrees,WindSpeedMPH,WindSpeedGustMPH,Humidity,HourlyPrecipIn,Conditions,Clouds,dailyrainin,SoftwareType,DateUTC
2013-07-18 00:02:00,75.0,68.0,-100.00,WNW,286,0.0,4.0,80,0.00,,,0.00,,2013-07-18 04:02:00,
2013-07-18 00:32:00,75.0,68.0,-100.00,WNW,286,0.0,4.0,80,0.00,,,0.00,,2013-07-18 04:32:00,
2013-07-18 00:43:00,75.0,68.0,-100.00,WNW,286,0.0,4.0,80,0.00,,,0.00,,2013-07-18 04:43:00,
2013-07-18 00:52:00,75.0,68.0,-100.00,WNW,286,0.0,4.0,80,0.00,,,0.00,,2013-07-18 04:52:00,
2013-07-18 01:32:00,72.0,69.0,-100.00,NE,53,0.0,2.0,90,0.00,,,0.00,,2013-07-18 05:32:00,
2013-07-18 01:43:00,72.0,69.0,-100.00,NE,53,0.0,2.0,90,0.00,,,0.00,,2013-07-18 05:43:00,
2013-07-18 01:52:00,72.0,69.0,-100.00,NE,53,0.0,2.0,90,0.00,,,0.00,,2013-07-18 05:52:00,
2013-07-18 02:01:00,72.0,69.0,-100.00,NE,53,0.0,2.0,90,0.00,,,0.00,,2013-07-18 06:01:00,
2013-07-18 02:32:00,71.0,69.0,-100.00,NNW,348,0.0,0.0,94,0.00,,,0.00,,2013-07-18 06:32:00,
2013-07-18 02:43:00,71.0,69.0,-100.00,NNW,348,0.0,0.0,94,0.00,,,0.00,,2013-07-18 06:43:00,
2013-07-18 02:52:00,71.0,69.0,-100.00,NNW,348,0.0,0.0,94,0.00,,,0.00,,2013-07-18 06:52:00,
2013-07-18 03:01:00,71.0,69.0,-100.00,NNW,348,0.0,0.0,94,0.00,,,0.00,,2013-07-18 07:01:00,
2013-07-18 03:22:00,73.0,70.0,-100.00,ESE,120,1.0,8.0,89,0.00,,,0.00,,2013-07-18 07:22:00,
2013-07-18 03:32:00,73.0,70.0,-100.00,ESE,120,1.0,8.0,89,0.00,,,0.00,,2013-07-18 07:32:00,
2013-07-18 03:42:00,73.0,70.0,-100.00,ESE,120,1.0,8.0,89,0.00,,,0.00,,2013-07-18 07:42:00,
2013-07-18 03:52:00,73.0,70.0,-100.00,ESE,120,1.0,8.0,89,0.00,,,0.00,,2013-07-18 07:52:00,
2013-07-18 04:01:00,73.0,70.0,-100.00,ESE,120,1.0,8.0,89,0.00,,,0.00,,2013-07-18 08:01:00,
2013-07-18 06:32:00,72.0,69.0,-100.00,NE,47,1.0,6.0,91,-99.99,,,0.00,,2013-07-18 10:32:00,
2013-07-18 06:43:00,72.0,69.0,-100.00,NE,47,1.0,6.0,91,-99.99,,,0.00,,2013-07-18 10:43:00,
2013-07-18 06:52:00,72.0,69.0,-100.00,NE,47,1.0,6.0,91,-99.99,,,0.00,,2013-07-18 10:52:00,
2013-07-18 07:01:00,72.0,69.0,-100.00,NE,47,1.0,6.0,91,-99.99,,,0.00,,2013-07-18 11:01:00,
2013-07-18 07:02:00,73.0,70.0,-100.00,NNW,336,1.0,4.0,89,0.00,,,0.00,,2013-07-18 11:02:00,
2013-07-18 07:32:00,73.0,70.0,-100.00,NNW,336,1.0,4.0,89,0.00,,,0.00,,2013-07-18 11:32:00,
2013-07-18 07:43:00,73.0,70.0,-100.00,NNW,336,1.0,4.0,89,0.00,,,0.00,,2013-07-18 11:43:00,
2013-07-18 07:52:00,73.0,70.0,-100.00,NNW,336,1.0,4.0,89,0.00,,,0.00,,2013-07-18 11:52:00,
2013-07-18 08:33:00,80.0,70.0,-100.00,NNW,328,3.0,7.0,71,0.00,,,-99.99,,2013-07-18 12:33:00,
2013-07-18 08:42:00,80.0,70.0,-100.00,NNW,328,3.0,7.0,71,0.00,,,-99.99,,2013-07-18 12:42:00,
2013-07-18 08:52:00,80.0,70.0,-100.00,NNW,328,3.0,7.0,71,0.00,,,-99.99,,2013-07-18 12:52:00,
2013-07-18 09:01:00,80.0,70.0,-100.00,NNW,328,3.0,7.0,71,0.00,,,-99.99,,2013-07-18 13:01:00,
2013-07-18 09:02:00,84.0,69.0,-100.00,NW,318,2.0,7.0,61,0.00,,,0.00,,2013-07-18 13:02:00,
2013-07-18 09:33:00,84.0,69.0,-100.00,NW,318,2.0,7.0,61,0.00,,,0.00,,2013-07-18 13:33:00,
2013-07-18 09:43:00,84.0,69.0,-100.00,NW,318,2.0,7.0,61,0.00,,,0.00,,2013-07-18 13:43:00,
2013-07-18 09:53:00,84.0,69.0,-100.00,NW,318,2.0,7.0,61,0.00,,,0.00,,2013-07-18 13:53:00,
2013-07-18 10:33:00,86.0,66.0,-100.00,NW,304,3.0,8.0,52,0.00,,,0.00,,2013-07-18 14:33:00,
2013-07-18 10:43:00,86.0,66.0,-100.00,NW,304,3.0,8.0,52,0.00,,,0.00,,2013-07-18 14:43:00,
2013-07-18 10:53:00,86.0,66.0,-100.00,NW,304,3.0,8.0,52,0.00,,,0.00,,2013-07-18 14:53:00,
2013-07-18 11:01:00,86.0,66.0,-100.00,NW,304,3.0,8.0,52,0.00,,,0.00,,2013-07-18 15:01:00,
2013-07-18 11:32:00,88.0,67.0,-100.00,NW,324,4.0,11.0,50,0.00,,,0.00,,2013-07-18 15:32:00,
2013-07-18 11:43:00,88.0,67.0,-100.00,NW,324,4.0,11.0,50,0.00,,,0.00,,2013-07-18 15:43:00,
2013-07-18 11:53:00,88.0,67.0,-100.00,NW,324,4.0,11.0,50,0.00,,,0.00,,2013-07-18 15:53:00,
2013-07-18 12:01:00,88.0,67.0,-100.00,NW,324,4.0,11.0,50,0.00,,,0.00,,2013-07-18 16:01:00,
2013-07-18 12:02:00,88.0,67.0,-100.00,WNW,301,4.0,10.0,50,0.00,,,0.00,,2013-07-18 16:02:00,
2013-07-18 12:32:00,88.0,67.0,-100.00,WNW,301,4.0,10.0,50,0.00,,,0.00,,2013-07-18 16:32:00,
2013-07-18 12:42:00,88.0,67.0,-100.00,WNW,301,4.0,10.0,50,0.00,,,0.00,,2013-07-18 16:42:00,
2013-07-18 12:52:00,88.0,67.0,-100.00,WNW,301,4.0,10.0,50,0.00,,,0.00,,2013-07-18 16:52:00,
2013-07-18 13:22:00,89.0,68.0,-100.00,SW,215,4.0,12.0,50,0.00,,,0.00,,2013-07-18 17:22:00,
2013-07-18 13:33:00,89.0,68.0,-100.00,SW,215,4.0,12.0,50,0.00,,,0.00,,2013-07-18 17:33:00,
2013-07-18 13:43:00,89.0,68.0,-100.00,SW,215,4.0,12.0,50,0.00,,,0.00,,2013-07-18 17:43:00,
2013-07-18 13:52:00,89.0,68.0,-100.00,SW,215,4.0,12.0,50,0.00,,,0.00,,2013-07-18 17:52:00,
2013-07-18 14:01:00,89.0,68.0,-100.00,SW,215,4.0,12.0,50,0.00,,,0.00,,2013-07-18 18:01:00,
2013-07-18 14:02:00,89.0,68.0,-100.00,SW,218,4.0,12.0,50,0.00,,,0.00,,2013-07-18 18:02:00,
2013-07-18 14:33:00,89.0,68.0,-100.00,SW,218,4.0,12.0,50,0.00,,,0.00,,2013-07-18 18:33:00,
2013-07-18 14:43:00,89.0,68.0,-100.00,SW,218,4.0,12.0,50,0.00,,,0.00,,2013-07-18 18:43:00,
2013-07-18 14:52:00,89.0,68.0,-100.00,SW,218,4.0,12.0,50,0.00,,,0.00,,2013-07-18 18:52:00,
2013-07-18 15:02:00,89.0,67.0,-100.00,South,183,3.0,10.0,48,0.00,,,0.00,,2013-07-18 19:02:00,
2013-07-18 15:32:00,89.0,67.0,-100.00,South,183,3.0,10.0,48,0.00,,,0.00,,2013-07-18 19:32:00,
2013-07-18 15:43:00,89.0,67.0,-100.00,South,183,3.0,10.0,48,0.00,,,0.00,,2013-07-18 19:43:00,
2013-07-18 15:53:00,89.0,67.0,-100.00,South,183,3.0,10.0,48,0.00,,,0.00,,2013-07-18 19:53:00,
2013-07-18 16:32:00,89.0,66.0,-100.00,West,272,3.0,10.0,47,0.00,,,0.00,,2013-07-18 20:32:00,
2013-07-18 16:43:00,89.0,66.0,-100.00,West,272,3.0,10.0,47,0.00,,,0.00,,2013-07-18 20:43:00,
2013-07-18 16:52:00,89.0,66.0,-100.00,West,272,3.0,10.0,47,0.00,,,0.00,,2013-07-18 20:52:00,
2013-07-18 17:01:00,89.0,66.0,-100.00,West,272,3.0,10.0,47,0.00,,,0.00,,2013-07-18 21:01:00,
2013-07-18 17:22:00,88.0,67.0,-100.00,WSW,255,3.0,13.0,50,0.00,,,0.00,,2013-07-18 21:22:00,
2013-07-18 17:32:00,88.0,67.0,-100.00,WSW,255,3.0,13.0,50,0.00,,,0.00,,2013-07-18 21:32:00,
2013-07-18 17:43:00,88.0,67.0,-100.00,WSW,255,3.0,13.0,50,0.00,,,0.00,,2013-07-18 21:43:00,
2013-07-18 17:52:00,88.0,67.0,-100.00,WSW,255,3.0,13.0,50,0.00,,,0.00,,2013-07-18 21:52:00,
2013-07-18 18:01:00,88.0,67.0,-100.00,WSW,255,3.0,13.0,50,0.00,,,0.00,,2013-07-18 22:01:00,
2013-07-18 18:02:00,85.0,68.0,-100.00,South,191,1.0,9.0,56,0.00,,,0.00,,2013-07-18 22:02:00,
2013-07-18 18:32:00,85.0,68.0,-100.00,South,191,1.0,9.0,56,0.00,,,0.00,,2013-07-18 22:32:00,
2013-07-18 18:43:00,85.0,68.0,-100.00,South,191,1.0,9.0,56,0.00,,,0.00,,2013-07-18 22:43:00,
2013-07-18 18:53:00,85.0,68.0,-100.00,South,191,1.0,9.0,56,0.00,,,0.00,,2013-07-18 22:53:00,
2013-07-18 19:32:00,81.0,70.0,-100.00,ESE,114,1.0,7.0,69,0.00,,,0.00,,2013-07-18 23:32:00,
2013-07-18 19:42:00,81.0,70.0,-100.00,ESE,114,1.0,7.0,69,0.00,,,0.00,,2013-07-18 23:42:00,
2013-07-18 19:52:00,81.0,70.0,-100.00,ESE,114,1.0,7.0,69,0.00,,,0.00,,2013-07-18 23:52:00,
2013-07-18 20:01:00,81.0,70.0,-100.00,ESE,114,1.0,7.0,69,0.00,,,0.00,,2013-07-19 00:01:00,
2013-07-18 20:32:00,77.0,70.0,-100.00,SSE,155,1.0,5.0,80,0.00,,,0.00,,2013-07-19 00:32:00,
2013-07-18 20:43:00,77.0,70.0,-100.00,SSE,155,1.0,5.0,80,0.00,,,0.00,,2013-07-19 00:43:00,
2013-07-18 20:52:00,77.0,70.0,-100.00,SSE,155,1.0,5.0,80,0.00,,,0.00,,2013-07-19 00:52:00,
2013-07-18 21:01:00,77.0,70.0,-100.00,SSE,155,1.0,5.0,80,0.00,,,0.00,,2013-07-19 01:01:00,
2013-07-18 21:02:00,75.0,68.0,-100.00,East,85,0.0,4.0,80,0.00,,,0.00,,2013-07-19 01:02:00,
2013-07-18 21:32:00,75.0,68.0,-100.00,East,85,0.0,4.0,80,0.00,,,0.00,,2013-07-19 01:32:00,
2013-07-18 21:42:00,75.0,68.0,-100.00,East,85,0.0,4.0,80,0.00,,,0.00,,2013-07-19 01:42:00,
2013-07-18 21:52:00,75.0,68.0,-100.00,East,85,0.0,4.0,80,0.00,,,0.00,,2013-07-19 01:52:00,
2013-07-18 22:32:00,72.0,68.0,-100.00,NNE,14,0.0,1.0,87,0.00,,,0.00,,2013-07-19 02:32:00,
2013-07-18 22:43:00,72.0,68.0,-100.00,NNE,14,0.0,1.0,87,0.00,,,0.00,,2013-07-19 02:43:00,
2013-07-18 22:52:00,72.0,68.0,-100.00,NNE,14,0.0,1.0,87,0.00,,,0.00,,2013-07-19 02:52:00,
2013-07-18 23:01:00,72.0,68.0,-100.00,NNE,14,0.0,1.0,87,0.00,,,0.00,,2013-07-19 03:01:00,
2013-07-18 23:02:00,70.0,67.0,-100.00,NE,56,0.0,3.0,90,0.00,,,0.00,,2013-07-19 03:02:00,
2013-07-18 23:32:00,70.0,67.0,-100.00,NE,56,0.0,3.0,90,0.00,,,0.00,,2013-07-19 03:32:00,
2013-07-18 23:43:00,70.0,67.0,-100.00,NE,56,0.0,3.0,90,0.00,,,0.00,,2013-07-19 03:43:00,
2013-07-18 23:52:00,70.0,67.0,-100.00,NE,56,0.0,3.0,90,0.00,,,0.00,,2013-07-19 03:52:00,